Weather History for KGMU - October, 2012

Change the Weather History Date:

Monday, October 22, 2012

  Actual Average Record
Temperature  
Mean Temperature 62 °F -  
Max Temperature 78 °F 67 °F 81 °F (2000)
Min Temperature 48 °F 49 °F 43 °F (1999)
Degree Days  
Heating Degree Days 4    
Growing Degree Days 12 (Base 50)    
Moisture  
Dew Point 48 °F    
Average Humidity 64    
Maximum Humidity 86    
Minimum Humidity 37    
Precipitation  
Precipitation 0.00 in - - ()
Sea Level Pressure  
Sea Level Pressure 30.19 in    
Wind  
Wind Speed 1 mph (SSE)    
Max Wind Speed 5 mph    
Max Gust Speed -    
Visibility 10 miles    
Events      
Averages and records for this station are not official NWS values.
T = Trace of Precipitation, MM = Missing Value Source: NWS Daily Summary

Daily Weather History Graph

Daily Weather History Graph

Search for Another Location

Airport or City:

Trip Planner

Search our weather history database for the weather conditions in past years. The results will help you decide how hot, cold, wet, or windy it might be!

Date:

Astronomy

Oct. 22, 2012 Rise Set
Actual Time 7:41 AM EDT 6:45 PM EDT
Civil Twilight 7:15 AM EDT 7:11 PM EDT
Nautical Twilight 6:46 AM EDT 7:40 PM EDT
Astronomical Twilight 6:16 AM EDT 8:09 PM EDT
Moon 2:37 PM EDT (10/22) 12:43 AM EDT (10/22)
Length of Visible Light 11h 55m
Length of Day
11h 03m
First Quarter, 56% of the Moon is Illuminated
Oct 22
First Quarter
Oct 29
Full
Nov 6
Last Quarter
Nov 13
New
Nov 20
First Quarter

Hourly Weather History & Observations

Time (EDT) Temp. Dew Point Humidity Pressure Visibility Wind Dir Wind Speed Gust Speed Precip Events Conditions
12:53 AM 54.0 °F 46.9 °F 77% 30.16 in 10.0 mi Calm Calm - N/A   Clear
1:53 AM 52.0 °F 46.9 °F 83% 30.16 in 10.0 mi Calm Calm - N/A   Clear
2:53 AM 53.1 °F 46.9 °F 80% 30.16 in 10.0 mi Calm Calm - N/A   Clear
3:53 AM 51.1 °F 46.0 °F 83% 30.17 in 10.0 mi Calm Calm - N/A   Clear
4:53 AM 50.0 °F 46.0 °F 86% 30.17 in 10.0 mi Calm Calm - N/A   Clear
5:53 AM 48.9 °F 45.0 °F 86% 30.19 in 10.0 mi Calm Calm - N/A   Clear
6:53 AM 48.9 °F 45.0 °F 86% 30.21 in 10.0 mi Calm Calm - N/A   Clear
8:53 AM 53.1 °F 48.9 °F 86% 30.24 in 10.0 mi Calm Calm - N/A   Clear
9:40 AM 59.0 °F 48.2 °F 67% 30.26 in 10.0 mi Calm Calm - N/A   Partly Cloudy
9:53 AM 61.0 °F 50.0 °F 67% 30.25 in 10.0 mi Calm Calm - N/A   Clear
10:53 AM 66.9 °F 48.9 °F 52% 30.24 in 10.0 mi Calm Calm - N/A   Unknown
11:53 AM 69.1 °F 48.9 °F 49% 30.24 in 10.0 mi Variable 3.5 mph - N/A   Clear
1:53 PM 73.0 °F 46.9 °F 39% 30.20 in 10.0 mi Calm Calm - N/A   Clear
2:53 PM 75.9 °F 48.9 °F 38% 30.17 in 10.0 mi South 4.6 mph - N/A   Clear
3:53 PM 75.9 °F 48.0 °F 37% 30.15 in 10.0 mi Variable 3.5 mph - N/A   Clear
4:53 PM 75.9 °F 48.0 °F 37% 30.15 in 10.0 mi East 3.5 mph - N/A   Clear
5:53 PM 75.0 °F 48.9 °F 40% 30.14 in 10.0 mi South 4.6 mph - N/A   Clear
6:53 PM 73.0 °F 48.9 °F 42% 30.16 in 10.0 mi Calm Calm - N/A   Clear
7:53 PM 68.0 °F 51.1 °F 55% 30.17 in 10.0 mi Calm Calm - N/A   Clear
9:53 PM 64.0 °F 51.1 °F 63% 30.19 in 10.0 mi Calm Calm - N/A   Clear
10:53 PM 59.0 °F 52.0 °F 78% 30.19 in 10.0 mi Calm Calm - N/A   Clear
11:53 PM 59.0 °F 52.0 °F 78% 30.19 in 10.0 mi Calm Calm - N/A   Clear